FW2315 Weather Reports


time (UTC)temp
C
wind
direction
speed
KPH
gust
KPH
rain 1hr
cm
rain 24hr
cm
rain mn
cm
humidity
%
barometer
mb
20260507203045 13 5 3.2 9.7 0.00 0.94 0.86 76 1015.5
20260507201544 13 16 4.8 12.9 0.00 0.94 0.86 76 1015.2
20260507200049 13 345 6.4 9.7 0.00 0.94 0.86 77 1014.9
20260507194543 13 355 4.8 9.7 0.00 1.40 0.86 76 1014.7
20260507193043 13 328 4.8 8.0 0.00 1.40 0.86 77 1014.6
20260507191549 14 360 1.6 6.4 0.00 1.40 0.86 76 1014.4
20260507190042 15 304 0.0 6.4 0.00 1.40 0.86 75 1014.2
20260507184541 15 304 3.2 8.0 0.00 1.42 0.86 74 1013.9
20260507183040 16 360 4.8 8.0 0.00 1.42 0.86 72 1013.5
20260507181541 16 47 1.6 4.8 0.00 1.42 0.86 71 1013.4
20260507180045 17 61 1.6 6.4 0.00 1.42 0.86 69 1013.1
20260507174540 17 106 6.4 14.5 0.00 1.45 0.86 66 1013.1
20260507173038 17 142 3.2 9.7 0.00 1.45 0.86 67 1012.9
20260507171537 18 151 1.6 12.9 0.00 1.45 0.86 65 1012.8
20260507170037 18 149 6.4 16.1 0.00 1.45 0.86 63 1012.8
20260507164536 20 146 4.8 14.5 0.00 1.52 0.86 54 1012.6
20260507163035 21 96 4.8 12.9 0.00 1.52 0.86 54 1012.7
20260507161532 21 68 4.8 12.9 0.00 1.52 0.86 56 1012.7
20260507160036 20 134 3.2 6.4 0.00 1.52 0.86 57 1012.7
20260507154531 19 138 3.2 8.0 0.00 2.34 0.86 61 1012.7
20260507153034 21 127 6.4 12.9 0.00 2.34 0.86 57 1012.7
20260507151530 18 215 4.8 14.5 0.00 2.34 0.86 62 1012.8
20260507150030 18 124 3.2 12.9 0.00 2.34 0.86 64 1013.0
20260507144531 18 134 11.3 19.3 0.00 2.87 0.86 62 1013.1
20260507143032 20 150 11.3 16.1 0.00 2.87 0.86 51 1013.1
20260507141526 21 129 8.0 20.9 0.00 2.87 0.86 46 1012.9
20260507140028 20 149 11.3 17.7 0.00 2.87 0.86 49 1013.0
20260507134526 20 86 8.0 16.1 0.00 2.92 0.86 54 1013.0
20260507133022 19 169 8.0 16.1 0.00 2.92 0.86 61 1013.3
20260507131525 18 131 6.4 12.9 0.00 2.92 0.86 65 1013.5
20260507130019 20 137 4.8 20.9 0.00 2.92 0.86 58 1013.5
20260507124518 20 195 9.7 16.1 0.00 2.97 0.86 51 1013.5
20260507123021 18 97 0.0 6.4 0.00 2.97 0.86 61 1013.7
20260507121510 18 148 6.4 12.9 0.00 2.97 0.86 63 1013.9
20260507120006 17 238 4.8 11.3 0.00 2.97 0.86 66 1014.0
20260507114508 17 233 3.2 11.3 0.00 2.97 0.86 64 1014.1
20260507113005 16 222 4.8 16.1 0.00 2.97 0.86 62 1014.3
20260507111503 16 211 8.0 12.9 0.00 2.97 0.86 62 1014.4
20260507110008 17 138 6.4 11.3 0.00 3.10 0.86 63 1014.5
20260507104600 16 85 8.0 12.9 0.00 3.10 0.86 70 1014.6
20260507104501 16 82 6.4 12.9 0.00 3.10 0.86 70 1014.6
20260507103100 16 238 4.8 11.3 0.00 3.10 0.86 71 1014.8
20260507101606 16 236 4.8 11.3 0.00 3.10 0.86 71 1014.8
20260507100055 16 119 6.4 14.5 0.00 3.10 0.86 72 1014.9
20260507094559 16 199 3.2 9.7 0.00 3.53 0.86 72 1014.9
20260507093049 15 184 4.8 8.0 0.00 3.53 0.86 72 1014.9
20260507091600 15 217 3.2 8.0 0.00 3.53 0.86 73 1015.2
20260507090108 15 253 3.2 12.9 0.00 3.53 0.86 72 1015.2
20260507084545 15 290 1.6 8.0 0.00 3.61 0.86 76 1015.2
20260507083042 14 252 4.8 14.5 0.00 3.61 0.86 78 1015.3
20260507081550 13 288 4.8 12.9 0.00 3.61 0.86 79 1015.2
20260507080035 13 302 8.0 14.5 0.00 3.61 0.86 81 1015.2
20260507074538 12 248 3.2 14.5 0.00 3.76 0.86 84 1015.3
20260507073036 12 281 3.2 12.9 0.00 3.76 0.86 83 1015.4
20260507071528 11 360 1.6 6.4 0.00 3.76 0.86 84 1015.4
20260507070024 10 13 1.6 8.0 0.00 3.76 0.86 87 1015.4
20260507064521 10 288 3.2 8.0 0.00 3.89 0.86 90 1015.3
20260507063017 10 265 4.8 9.7 0.00 3.89 0.86 91 1015.4
20260507061529 10 319 1.6 8.0 0.00 3.89 0.86 92 1015.4
20260507060028 9 286 0.0 4.8 0.00 3.89 0.86 94 1015.4
20260507054514 8 312 1.6 4.8 0.00 4.11 0.86 94 1015.3
20260507053015 8 355 1.6 8.0 0.00 4.11 0.86 94 1015.2
20260507051513 8 281 3.2 8.0 0.00 4.11 0.86 94 1015.1
20260507050027 8 298 0.0 3.2 0.00 4.11 0.86 94 1014.9
20260507044526 8 299 0.0 3.2 0.00 4.11 0.86 93 1014.9
20260507043010 8 302 0.0 6.4 0.00 4.11 0.86 93 1014.9
20260507041509 8 9 3.2 6.4 0.00 4.11 0.86 93 1014.9
20260507040010 8 38 1.6 4.8 0.00 4.14 0.86 93 1015.0
20260507034507 8 73 0.0 4.8 0.00 4.14 0.86 93 1014.9
20260507033009 8 77 0.0 3.2 0.03 4.14 0.86 93 1014.9
20260507031504 8 325 1.6 4.8 0.05 4.14 0.86 93 1014.9
20260507030002 8 94 0.0 6.4 0.08 4.19 0.86 94 1014.9
20260507024501 8 245 3.2 8.0 0.08 4.19 0.86 94 1014.6
20260507023100 8 312 1.6 4.8 0.08 4.17 0.84 94 1015.0
20260507021617 8 348 1.6 4.8 0.08 4.14 0.81 94 1014.8
20260507020107 8 99 1.6 6.4 0.05 4.11 0.79 94 1014.9
20260507014615 8 279 0.0 4.8 0.05 4.19 0.79 94 1014.6
20260507013058 8 63 0.0 4.8 0.05 4.17 0.76 94 1014.5
20260507011558 8 355 0.0 3.2 0.05 4.14 0.71 94 1014.6
20260507010109 8 313 1.6 3.2 0.13 4.14 0.71 94 1014.7
20260507004555 8 281 1.6 6.4 0.15 4.27 0.71 94 1014.6
20260507003055 8 75 1.6 12.9 0.23 4.24 0.71 94 1014.8
20260507001558 9 292 4.8 6.4 0.28 4.22 0.69 94 1014.8
20260507000053 9 161 3.2 12.9 0.25 4.14 0.61 94 1014.9
20260506234553 9 254 1.6 14.5 0.30 4.37 0.58 92 1014.7
20260506233053 9 296 3.2 6.4 0.28 4.27 0.48 93 1015.3
20260506231546 9 99 0.0 3.2 0.41 4.19 0.41 93 1015.1
20260506230044 9 155 0.0 1.6 0.36 4.14 0.36 93 1014.7
20260506224542 9 180 1.6 6.4 0.28 4.14 0.28 92 1014.5
20260506223041 9 317 3.2 8.0 0.20 4.06 0.20 91 1014.3
20260506221539 9 27 3.2 6.4 0.00 3.86 0.00 92 1014.5
20260506220039 9 82 4.8 8.0 0.00 3.86 0.00 91 1014.2
20260506214536 9 67 0.0 4.8 0.00 3.86 3.86 91 1013.9
20260506213036 9 320 1.6 6.4 0.00 3.86 3.86 90 1013.8
20260506211535 10 250 1.6 9.7 0.00 3.86 3.86 89 1013.9
20260506210034 10 273 8.0 19.3 0.08 3.86 3.86 88 1013.9
20260506204534 10 314 3.2 8.0 0.28 3.86 3.86 89 1014.0